QPF
0.00 0.00 0.00 0.00 0.00 0.01 0.01 0.00 0.00 0.00 0.00 0.00 0.00 0.00 0.00 0.00 0.00 0.00 0.00 0.01 0.01 0.02 0.02 0.02 0.02 0.02 0.02 0.02 0.02 0.01 0.01 0.01 0.01 0.00 0.00 0.00 0.00 0.01 0.01 0.01 0.02 0.02 0.02
0.00 0.00 0.01 0.01 0.01 0.01 0.01 0.01 0.01 0.01 0.01 0.00 0.00 0.00 0.00 0.00 0.00 0.00 0.00 0.00 0.01 0.02 0.02 0.03 0.03 0.03 0.03 0.03 0.03 0.02 0.02 0.02 0.02 0.01 0.01 0.00 0.00 0.00 0.01 0.01 0.01 0.01 0.02
0.01 0.01 0.01 0.01 0.01 0.01 0.01 0.01 0.01 0.01 0.01 0.01 0.00 0.00 0.00 0.00 0.00 0.00 0.00 0.00 0.01 0.02 0.03 0.04 0.04 0.04 0.04 0.04 0.05 0.04 0.03 0.03 0.02 0.02 0.02 0.01 0.01 0.01 0.00 0.01 0.01 0.01 0.01
0.03 0.02 0.02 0.02 0.02 0.02 0.03 0.03 0.02 0.02 0.01 0.01 0.01 0.00 0.00 0.00 0.00 0.00 0.00 0.00 0.00 0.00 0.01 0.02 0.03 0.03 0.04 0.04 0.04 0.04 0.03 0.03 0.02 0.02 0.02 0.02 0.02 0.01 0.01 0.01 0.01 0.01 0.01
0.05 0.04 0.05 0.05 0.05 0.05 0.06 0.05 0.05 0.04 0.03 0.02 0.02 0.01 0.01 0.00 0.00 0.00 0.00 0.00 0.00 0.00 0.00 0.01 0.02 0.02 0.03 0.03 0.03 0.03 0.02 0.02 0.02 0.02 0.03 0.02 0.03 0.03 0.02 0.02 0.01 0.01 0.01
0.10 0.11 0.12 0.12 0.10 0.10 0.10 0.08 0.07 0.06 0.05 0.04 0.03 0.02 0.01 0.01 0.00 0.00 0.00 0.00 0.00 0.00 0.00 0.00 0.01 0.01 0.02 0.01 0.01 0.02 0.02 0.02 0.02 0.03 0.03 0.04 0.04 0.04 0.03 0.02 0.01 0.01 0.01
0.20 0.22 0.22 0.19 0.16 0.13 0.11 0.09 0.07 0.06 0.06 0.05 0.04 0.02 0.01 0.01 0.00 0.00 0.00 0.00 0.00 0.00 0.00 0.00 0.00 0.00 0.00 0.01 0.01 0.01 0.01 0.01 0.01 0.01 0.02 0.03 0.03 0.03 0.03 0.03 0.02 0.02 0.02
0.35 0.31 0.27 0.22 0.18 0.14 0.11 0.09 0.08 0.07 0.06 0.05 0.03 0.02 0.01 0.00 0.00 0.00 0.00 0.00 0.00 0.00 0.00 0.00 0.00 0.00 0.00 0.00 0.00 0.00 0.00 0.00 0.00 0.00 0.00 0.01 0.01 0.01 0.01 0.02 0.02 0.02 0.02
0.36 0.30 0.26 0.20 0.16 0.12 0.10 0.09 0.08 0.07 0.05 0.03 0.02 0.01 0.00 0.00 0.00 0.00 0.00 0.00 0.00 0.00 0.00 0.00 0.00 0.00 0.00 0.00 0.00 0.00 0.00 0.00 0.00 0.00 0.00 0.00 0.00 0.01 0.01 0.01 0.01 0.01 0.01
0.29 0.26 0.22 0.17 0.15 0.13 0.12 0.10 0.08 0.06 0.04 0.02 0.02 0.01 0.01 0.00 0.00 0.00 0.00 0.00 0.00 0.00 0.00 0.00 0.00 0.00 0.00 0.00 0.00 0.00 0.00 0.00 0.00 0.00 0.00 0.00 0.00 0.00 0.01 0.01 0.01 0.01 0.02
0.24 0.21 0.18 0.15 0.13 0.12 0.09 0.06 0.04 0.03 0.02 0.02 0.01 0.00 0.00 0.00 0.00 0.00 0.00 0.00 0.00 0.00 0.00 0.00 0.00 0.00 0.00 0.00 0.00 0.00 0.00 0.00 0.00 0.00 0.00 0.00 0.00 0.00 0.01 0.01 0.01 0.01 0.02
0.18 0.16 0.13 0.11 0.10 0.07 0.05 0.03 0.02 0.01 0.00 0.00 0.00 0.00 0.00 0.00 0.00 0.00 0.00 0.00 0.00 0.00 0.00 0.00 0.00 0.00 0.00 0.00 0.00 0.00 0.00 0.00 0.00 0.00 0.00 0.00 0.00 0.00 0.01 0.01 0.01 0.02 0.03
0.14 0.11 0.08 0.07 0.05 0.03 0.02 0.01 0.01 0.00 0.00 0.00 0.00 0.00 0.00 0.00 0.00 0.00 0.00 0.00 0.00 0.00 0.00 0.00 0.00 0.00 0.00 0.00 0.00 0.00 0.00 0.00 0.00 0.00 0.00 0.00 0.00 0.00 0.00 0.01 0.01 0.02 0.03
0.07 0.05 0.04 0.03 0.02 0.01 0.01 0.01 0.01 0.01 0.00 0.00 0.00 0.00 0.00 0.00 0.00 0.00 0.00 0.00 0.00 0.00 0.00 0.00 0.00 0.00 0.00 0.00 0.00 0.00 0.00 0.00 0.00 0.00 0.00 0.00 0.00 0.00 0.01 0.01 0.01 0.01 0.01
0.03 0.03 0.02 0.02 0.02 0.01 0.01 0.01 0.01 0.00 0.00 0.00 0.00 0.00 0.00 0.00 0.00 0.00 0.00 0.00 0.00 0.00 0.00 0.00 0.00 0.00 0.00 0.00 0.00 0.00 0.00 0.00 0.00 0.00 0.00 0.00 0.00 0.00 0.01 0.01 0.01 0.01 0.01
0.02 0.02 0.02 0.02 0.02 0.01 0.01 0.01 0.00 0.00 0.00 0.00 0.00 0.00 0.00 0.00 0.00 0.00 0.00 0.00 0.00 0.00 0.00 0.00 0.00 0.00 0.00 0.00 0.00 0.00 0.00 0.00 0.00 0.00 0.00 0.00 0.00 0.01 0.01 0.01 0.01 0.02 0.02
0.01 0.02 0.02 0.02 0.02 0.02 0.01 0.01 0.01 0.01 0.00 0.00 0.00 0.00 0.00 0.00 0.00 0.00 0.00 0.00 0.00 0.00 0.00 0.00 0.00 0.00 0.00 0.00 0.00 0.00 0.00 0.00 0.00 0.00 0.00 0.00 0.01 0.01 0.01 0.02 0.02 0.02 0.02
0.01 0.02 0.02 0.02 0.02 0.02 0.02 0.01 0.01 0.00 0.00 0.00 0.00 0.00 0.00 0.00 0.00 0.00 0.00 0.00 0.00 0.00 0.00 0.00 0.00 0.00 0.00 0.00 0.00 0.00 0.00 0.00 0.00 0.00 0.00 0.00 0.01 0.02 0.02 0.02 0.03 0.02 0.02
0.02 0.03 0.03 0.02 0.02 0.01 0.01 0.01 0.01 0.00 0.00 0.00 0.01 0.01 0.00 0.00 0.00 0.00 0.00 0.00 0.00 0.00 0.00 0.00 0.00 0.00 0.00 0.00 0.00 0.00 0.00 0.00 0.00 0.00 0.00 0.00 0.01 0.01 0.02 0.02 0.02 0.02 0.01
0.03 0.03 0.03 0.02 0.02 0.01 0.01 0.01 0.01 0.01 0.01 0.01 0.00 0.00 0.00 0.00 0.00 0.00 0.00 0.00 0.00 0.00 0.00 0.00 0.00 0.00 0.00 0.00 0.00 0.00 0.00 0.00 0.00 0.00 0.00 0.00 0.00 0.01 0.01 0.01 0.01 0.02 0.02
0.04 0.03 0.02 0.02 0.02 0.01 0.01 0.01 0.01 0.00 0.00 0.00 0.00 0.00 0.00 0.00 0.00 0.00 0.01 0.01 0.01 0.01 0.01 0.01 0.01 0.01 0.01 0.01 0.01 0.01 0.01 0.01 0.00 0.00 0.00 0.00 0.00 0.00 0.00 0.00 0.01 0.01 0.01
0.03 0.02 0.02 0.01 0.01 0.01 0.01 0.00 0.00 0.00 0.00 0.00 0.00 0.00 0.00 0.00 0.00 0.00 0.00 0.01 0.01 0.02 0.02 0.02 0.02 0.02 0.02 0.01 0.01 0.01 0.02 0.02 0.02 0.01 0.01 0.01 0.00 0.00 0.00 0.00 0.01 0.01 0.01
0.02 0.02 0.01 0.01 0.00 0.00 0.00 0.00 0.00 0.00 0.00 0.00 0.00 0.00 0.00 0.00 0.00 0.00 0.00 0.00 0.00 0.01 0.01 0.02 0.03 0.03 0.02 0.02 0.03 0.03 0.03 0.03 0.02 0.02 0.03 0.03 0.01 0.01 0.01 0.01 0.01 0.01 0.01
0.01 0.01 0.00 0.00 0.00 0.00 0.00 0.00 0.00 0.00 0.00 0.00 0.00 0.00 0.00 0.00 0.00 0.00 0.00 0.00 0.00 0.00 0.01 0.01 0.01 0.02 0.02 0.02 0.03 0.04 0.03 0.02 0.01 0.01 0.03 0.04 0.02 0.01 0.01 0.01 0.01 0.01 0.01
0.00 0.00 0.00 0.00 0.00 0.00 0.00 0.00 0.00 0.00 0.00 0.00 0.00 0.00 0.00 0.00 0.00 0.01 0.01 0.01 0.00 0.00 0.01 0.01 0.01 0.01 0.02 0.02 0.03 0.03 0.04 0.03 0.02 0.02 0.02 0.03 0.02 0.01 0.01 0.01 0.02 0.02 0.02
0.00 0.00 0.00 0.00 0.00 0.00 0.00 0.00 0.00 0.00 0.00 0.00 0.00 0.00 0.00 0.00 0.00 0.01 0.01 0.01 0.01 0.01 0.01 0.01 0.01 0.01 0.01 0.02 0.03 0.04 0.04 0.05 0.04 0.04 0.03 0.03 0.03 0.02 0.02 0.01 0.01 0.01 0.02
MSLP
1016.50 1016.85 1017.14 1017.40 1017.63 1017.88 1018.13 1018.38 1018.62 1018.82 1018.96 1019.04 1019.04 1019.00 1018.93 1018.86 1018.82 1018.83 1018.88 1018.96 1019.06 1019.16 1019.24 1019.30 1019.34 1019.37 1019.43 1019.51 1019.62 1019.76 1019.93 1020.10 1020.26 1020.40 1020.52 1020.63 1020.72 1020.81 1020.89 1020.98 1021.06 1021.14 1021.20
1016.25 1016.62 1016.96 1017.28 1017.59 1017.91 1018.23 1018.54 1018.82 1019.05 1019.22 1019.31 1019.34 1019.32 1019.27 1019.21 1019.18 1019.18 1019.22 1019.28 1019.35 1019.42 1019.47 1019.50 1019.51 1019.51 1019.52 1019.55 1019.61 1019.70 1019.81 1019.94 1020.07 1020.20 1020.33 1020.45 1020.57 1020.68 1020.79 1020.90 1020.99 1021.07 1021.13
1015.98 1016.38 1016.77 1017.16 1017.55 1017.95 1018.35 1018.72 1019.06 1019.33 1019.53 1019.65 1019.71 1019.70 1019.67 1019.63 1019.60 1019.60 1019.62 1019.66 1019.70 1019.74 1019.76 1019.75 1019.73 1019.69 1019.66 1019.63 1019.63 1019.66 1019.71 1019.79 1019.88 1019.99 1020.10 1020.23 1020.36 1020.50 1020.63 1020.75 1020.86 1020.95 1021.01
1015.78 1016.18 1016.61 1017.06 1017.53 1018.00 1018.47 1018.91 1019.30 1019.61 1019.85 1020.00 1020.08 1020.10 1020.09 1020.07 1020.05 1020.04 1020.05 1020.07 1020.09 1020.09 1020.08 1020.05 1019.99 1019.92 1019.84 1019.77 1019.72 1019.68 1019.67 1019.68 1019.72 1019.79 1019.88 1020.00 1020.13 1020.27 1020.41 1020.54 1020.66 1020.76 1020.84
1015.68 1016.07 1016.51 1017.00 1017.52 1018.06 1018.58 1019.07 1019.49 1019.84 1020.11 1020.29 1020.40 1020.46 1020.48 1020.49 1020.48 1020.48 1020.48 1020.49 1020.48 1020.47 1020.43 1020.37 1020.29 1020.19 1020.08 1019.97 1019.87 1019.78 1019.71 1019.67 1019.66 1019.67 1019.73 1019.81 1019.91 1020.03 1020.16 1020.29 1020.41 1020.51 1020.59
1015.70 1016.07 1016.50 1017.00 1017.54 1018.10 1018.65 1019.16 1019.61 1019.98 1020.27 1020.49 1020.65 1020.75 1020.81 1020.86 1020.88 1020.90 1020.91 1020.90 1020.88 1020.84 1020.79 1020.71 1020.61 1020.50 1020.37 1020.24 1020.10 1019.97 1019.86 1019.76 1019.70 1019.66 1019.66 1019.69 1019.74 1019.82 1019.91 1020.00 1020.09 1020.17 1020.24
1015.84 1016.17 1016.58 1017.05 1017.58 1018.12 1018.67 1019.17 1019.63 1020.01 1020.33 1020.59 1020.79 1020.95 1021.07 1021.17 1021.24 1021.28 1021.30 1021.30 1021.27 1021.22 1021.15 1021.05 1020.95 1020.82 1020.68 1020.54 1020.39 1020.23 1020.09 1019.95 1019.83 1019.74 1019.68 1019.64 1019.63 1019.63 1019.65 1019.68 1019.71 1019.75 1019.78
1016.09 1016.37 1016.73 1017.15 1017.64 1018.14 1018.65 1019.13 1019.57 1019.96 1020.30 1020.59 1020.85 1021.07 1021.26 1021.42 1021.54 1021.62 1021.66 1021.67 1021.63 1021.56 1021.48 1021.37 1021.25 1021.12 1020.98 1020.83 1020.67 1020.51 1020.34 1020.18 1020.02 1019.87 1019.75 1019.63 1019.54 1019.45 1019.38 1019.32 1019.27 1019.23 1019.22
1016.39 1016.63 1016.94 1017.32 1017.74 1018.18 1018.63 1019.07 1019.48 1019.86 1020.21 1020.54 1020.85 1021.14 1021.40 1021.62 1021.79 1021.91 1021.97 1021.97 1021.93 1021.84 1021.73 1021.61 1021.47 1021.34 1021.19 1021.04 1020.88 1020.72 1020.54 1020.36 1020.17 1019.99 1019.80 1019.62 1019.44 1019.26 1019.08 1018.91 1018.77 1018.65 1018.56
1016.74 1016.96 1017.23 1017.54 1017.90 1018.27 1018.66 1019.04 1019.41 1019.78 1020.14 1020.49 1020.85 1021.19 1021.50 1021.77 1021.98 1022.12 1022.19 1022.18 1022.12 1022.01 1021.87 1021.72 1021.56 1021.41 1021.25 1021.10 1020.94 1020.78 1020.60 1020.41 1020.21 1019.99 1019.76 1019.52 1019.27 1019.00 1018.73 1018.46 1018.21 1018.00 1017.84
1017.11 1017.33 1017.57 1017.84 1018.14 1018.45 1018.76 1019.09 1019.42 1019.76 1020.11 1020.48 1020.86 1021.23 1021.58 1021.87 1022.10 1022.24 1022.29 1022.27 1022.17 1022.02 1021.85 1021.66 1021.47 1021.30 1021.13 1020.96 1020.80 1020.63 1020.46 1020.27 1020.06 1019.83 1019.58 1019.30 1018.99 1018.66 1018.31 1017.96 1017.62 1017.33 1017.09
1017.51 1017.74 1017.97 1018.21 1018.46 1018.72 1018.97 1019.24 1019.53 1019.84 1020.17 1020.54 1020.92 1021.29 1021.64 1021.93 1022.14 1022.26 1022.28 1022.21 1022.07 1021.88 1021.66 1021.43 1021.21 1021.00 1020.81 1020.63 1020.45 1020.28 1020.10 1019.91 1019.70 1019.47 1019.21 1018.92 1018.59 1018.22 1017.82 1017.42 1017.02 1016.66 1016.37
1017.94 1018.19 1018.43 1018.65 1018.87 1019.08 1019.29 1019.51 1019.75 1020.02 1020.33 1020.66 1021.02 1021.37 1021.68 1021.94 1022.11 1022.18 1022.14 1022.02 1021.83 1021.59 1021.33 1021.06 1020.80 1020.56 1020.34 1020.13 1019.94 1019.75 1019.56 1019.37 1019.16 1018.93 1018.68 1018.39 1018.06 1017.68 1017.27 1016.84 1016.41 1016.02 1015.69
1018.41 1018.68 1018.93 1019.14 1019.34 1019.51 1019.68 1019.86 1020.06 1020.29 1020.56 1020.85 1021.16 1021.45 1021.71 1021.90 1022.01 1022.01 1021.92 1021.75 1021.50 1021.22 1020.91 1020.60 1020.31 1020.04 1019.78 1019.55 1019.32 1019.11 1018.90 1018.69 1018.48 1018.25 1018.01 1017.73 1017.41 1017.05 1016.65 1016.23 1015.80 1015.40 1015.06
1018.91 1019.20 1019.44 1019.65 1019.83 1019.98 1020.12 1020.27 1020.43 1020.62 1020.84 1021.08 1021.32 1021.55 1021.73 1021.85 1021.88 1021.81 1021.66 1021.43 1021.14 1020.81 1020.48 1020.14 1019.82 1019.51 1019.23 1018.95 1018.69 1018.43 1018.19 1017.95 1017.71 1017.48 1017.23 1016.97 1016.67 1016.33 1015.96 1015.57 1015.17 1014.79 1014.46
1019.42 1019.71 1019.95 1020.15 1020.32 1020.45 1020.57 1020.69 1020.82 1020.97 1021.14 1021.32 1021.50 1021.65 1021.75 1021.79 1021.74 1021.61 1021.39 1021.12 1020.79 1020.44 1020.08 1019.73 1019.38 1019.05 1018.72 1018.41 1018.10 1017.79 1017.49 1017.20 1016.93 1016.66 1016.40 1016.13 1015.85 1015.54 1015.20 1014.84 1014.47 1014.13 1013.83
1019.93 1020.20 1020.43 1020.62 1020.77 1020.89 1020.99 1021.09 1021.19 1021.30 1021.43 1021.55 1021.66 1021.74 1021.77 1021.73 1021.62 1021.42 1021.16 1020.85 1020.49 1020.12 1019.75 1019.38 1019.02 1018.66 1018.30 1017.93 1017.56 1017.20 1016.83 1016.48 1016.15 1015.83 1015.53 1015.24 1014.95 1014.65 1014.33 1014.01 1013.68 1013.38 1013.11
1020.41 1020.65 1020.86 1021.03 1021.16 1021.27 1021.36 1021.44 1021.52 1021.60 1021.68 1021.75 1021.80 1021.82 1021.78 1021.67 1021.50 1021.26 1020.95 1020.61 1020.24 1019.85 1019.47 1019.08 1018.70 1018.31 1017.91 1017.50 1017.08 1016.64 1016.21 1015.79 1015.38 1015.00 1014.65 1014.31 1013.99 1013.68 1013.38 1013.07 1012.78 1012.51 1012.29
1020.86 1021.06 1021.24 1021.39 1021.51 1021.60 1021.67 1021.73 1021.79 1021.83 1021.87 1021.90 1021.89 1021.85 1021.75 1021.59 1021.36 1021.08 1020.74 1020.37 1019.98 1019.57 1019.17 1018.77 1018.37 1017.95 1017.52 1017.07 1016.59 1016.10 1015.60 1015.10 1014.63 1014.18 1013.76 1013.37 1013.01 1012.67 1012.35 1012.05 1011.78 1011.54 1011.35
1021.26 1021.43 1021.58 1021.71 1021.81 1021.88 1021.94 1021.97 1021.99 1022.00 1022.00 1021.97 1021.91 1021.81 1021.66 1021.45 1021.18 1020.85 1020.48 1020.08 1019.66 1019.24 1018.81 1018.39 1017.96 1017.52 1017.06 1016.57 1016.06 1015.52 1014.98 1014.43 1013.89 1013.38 1012.90 1012.45 1012.03 1011.65 1011.31 1010.99 1010.72 1010.50 1010.33
1021.64 1021.78 1021.91 1022.01 1022.09 1022.14 1022.16 1022.16 1022.14 1022.10 1022.04 1021.96 1021.84 1021.68 1021.48 1021.22 1020.90 1020.53 1020.13 1019.70 1019.25 1018.80 1018.35 1017.90 1017.44 1016.98 1016.50 1016.00 1015.47 1014.92 1014.36 1013.78 1013.21 1012.65 1012.12 1011.62 1011.15 1010.71 1010.32 1009.98 1009.69 1009.46 1009.31
1022.02 1022.14 1022.24 1022.31 1022.36 1022.37 1022.35 1022.30 1022.23 1022.12 1022.00 1021.85 1021.67 1021.46 1021.20 1020.89 1020.53 1020.12 1019.68 1019.22 1018.74 1018.25 1017.77 1017.30 1016.83 1016.35 1015.87 1015.38 1014.86 1014.32 1013.77 1013.20 1012.62 1012.05 1011.48 1010.93 1010.41 1009.92 1009.48 1009.09 1008.76 1008.51 1008.35
1022.41 1022.50 1022.58 1022.62 1022.63 1022.59 1022.52 1022.41 1022.26 1022.09 1021.90 1021.68 1021.43 1021.15 1020.84 1020.48 1020.08 1019.64 1019.16 1018.67 1018.16 1017.64 1017.14 1016.64 1016.16 1015.69 1015.22 1014.75 1014.27 1013.78 1013.27 1012.73 1012.18 1011.61 1011.04 1010.46 1009.89 1009.35 1008.84 1008.39 1008.01 1007.72 1007.53
1022.82 1022.88 1022.93 1022.93 1022.89 1022.80 1022.66 1022.48 1022.26 1022.01 1021.74 1021.45 1021.14 1020.80 1020.43 1020.03 1019.60 1019.13 1018.63 1018.11 1017.58 1017.05 1016.52 1016.02 1015.54 1015.08 1014.64 1014.22 1013.79 1013.36 1012.91 1012.44 1011.93 1011.39 1010.82 1010.23 1009.62 1009.02 1008.45 1007.92 1007.47 1007.12 1006.88
1023.23 1023.27 1023.28 1023.23 1023.14 1022.99 1022.79 1022.53 1022.24 1021.91 1021.57 1021.21 1020.84 1020.45 1020.04 1019.62 1019.16 1018.67 1018.16 1017.63 1017.08 1016.54 1016.02 1015.51 1015.04 1014.61 1014.21 1013.84 1013.47 1013.11 1012.74 1012.33 1011.87 1011.37 1010.81 1010.21 1009.57 1008.91 1008.27 1007.66 1007.13 1006.70 1006.39
1023.64 1023.64 1023.60 1023.51 1023.36 1023.15 1022.88 1022.56 1022.20 1021.82 1021.41 1020.99 1020.58 1020.15 1019.72 1019.27 1018.81 1018.32 1017.81 1017.28 1016.74 1016.20 1015.68 1015.19 1014.73 1014.32 1013.96 1013.63 1013.33 1013.03 1012.72 1012.37 1011.97 1011.50 1010.96 1010.34 1009.67 1008.96 1008.25 1007.56 1006.94 1006.42 1006.03
Thickness
5721 5717 5714 5711 5708 5705 5702 5699 5697 5695 5694 5693 5692 5691 5690 5689 5688 5687 5686 5685 5684 5683 5682 5680 5679 5677 5675 5673 5672 5670 5668 5667 5665 5664 5663 5661 5660 5659 5658 5658 5657 5657 5657
5719 5715 5711 5708 5705 5701 5698 5695 5692 5690 5688 5686 5684 5683 5682 5681 5680 5679 5678 5677 5676 5675 5673 5672 5671 5669 5667 5666 5664 5662 5660 5658 5657 5655 5654 5653 5652 5651 5650 5650 5649 5649 5649
5716 5712 5708 5704 5701 5697 5693 5689 5685 5683 5681 5679 5677 5675 5674 5673 5672 5670 5669 5668 5667 5665 5664 5663 5662 5660 5659 5657 5655 5653 5651 5649 5647 5646 5645 5643 5642 5641 5641 5640 5640 5640 5640
5711 5707 5703 5699 5695 5692 5687 5683 5679 5674 5671 5669 5667 5665 5664 5663 5662 5661 5659 5658 5656 5654 5652 5651 5651 5649 5648 5646 5645 5643 5641 5639 5637 5636 5635 5633 5632 5631 5630 5630 5630 5630 5630
5705 5700 5695 5691 5688 5684 5680 5676 5671 5667 5662 5659 5657 5655 5653 5651 5650 5649 5648 5646 5644 5641 5639 5638 5637 5636 5635 5633 5632 5630 5628 5627 5625 5624 5623 5622 5621 5620 5619 5619 5619 5619 5620
5696 5692 5687 5682 5679 5676 5671 5668 5662 5658 5653 5650 5648 5643 5640 5639 5637 5636 5634 5632 5630 5628 5625 5623 5622 5620 5619 5618 5616 5615 5614 5613 5612 5611 5610 5610 5609 5608 5607 5607 5607 5607 5608
5689 5684 5680 5675 5671 5667 5663 5659 5654 5649 5644 5641 5637 5632 5628 5626 5624 5621 5620 5618 5616 5613 5611 5609 5606 5604 5603 5601 5600 5599 5599 5597 5597 5596 5596 5595 5595 5594 5594 5594 5594 5595 5595
5682 5677 5674 5669 5664 5658 5654 5651 5647 5640 5634 5631 5628 5624 5619 5615 5612 5609 5606 5604 5601 5599 5597 5594 5592 5589 5587 5585 5584 5583 5582 5581 5581 5580 5581 5580 5580 5581 5581 5581 5582 5582 5583
5673 5669 5664 5660 5655 5651 5646 5642 5638 5633 5625 5619 5617 5615 5611 5607 5600 5597 5593 5590 5587 5584 5582 5580 5577 5575 5572 5570 5568 5566 5565 5564 5564 5565 5565 5565 5566 5566 5567 5567 5568 5569 5571
5664 5659 5655 5651 5647 5642 5636 5631 5627 5622 5616 5610 5604 5600 5596 5593 5589 5586 5582 5577 5574 5571 5567 5565 5562 5559 5556 5554 5552 5550 5549 5548 5548 5548 5548 5549 5550 5550 5551 5552 5554 5555 5557
5653 5649 5645 5641 5637 5632 5626 5620 5615 5610 5605 5600 5594 5588 5583 5577 5573 5571 5569 5565 5561 5557 5553 5550 5547 5544 5541 5538 5537 5535 5534 5533 5533 5532 5532 5532 5533 5534 5535 5536 5538 5540 5542
5641 5638 5634 5630 5625 5620 5615 5610 5604 5598 5593 5588 5581 5576 5571 5566 5561 5555 5553 5551 5548 5545 5540 5536 5532 5529 5526 5524 5522 5520 5519 5518 5516 5516 5515 5515 5515 5515 5516 5518 5520 5523 5526
5631 5628 5624 5619 5613 5608 5603 5597 5591 5585 5580 5575 5568 5562 5557 5552 5547 5541 5538 5537 5534 5533 5528 5524 5518 5514 5510 5508 5506 5504 5503 5501 5499 5498 5497 5496 5496 5496 5497 5498 5500 5503 5506
5622 5617 5612 5606 5600 5595 5590 5583 5577 5571 5566 5561 5555 5549 5543 5538 5532 5527 5523 5521 5522 5522 5517 5512 5505 5499 5495 5492 5490 5488 5486 5484 5482 5480 5479 5478 5478 5478 5478 5479 5480 5483 5486
5610 5603 5598 5592 5586 5581 5575 5568 5562 5556 5550 5545 5539 5534 5528 5523 5517 5512 5508 5503 5502 5507 5509 5501 5493 5487 5481 5478 5475 5473 5470 5468 5466 5464 5462 5461 5460 5460 5460 5461 5462 5464 5466
5595 5588 5582 5576 5570 5564 5558 5552 5546 5540 5534 5528 5523 5518 5513 5508 5503 5498 5493 5488 5484 5483 5488 5485 5478 5472 5468 5465 5462 5459 5456 5453 5451 5449 5447 5446 5445 5445 5445 5445 5447 5448 5450
5578 5573 5566 5559 5552 5546 5540 5534 5528 5523 5518 5512 5507 5503 5498 5493 5489 5484 5479 5475 5470 5466 5468 5471 5463 5459 5454 5451 5450 5446 5443 5441 5439 5437 5436 5435 5435 5435 5435 5435 5437 5438 5439
5560 5554 5548 5541 5534 5528 5522 5517 5511 5506 5501 5496 5492 5487 5483 5480 5475 5471 5466 5462 5457 5453 5451 5455 5453 5448 5444 5440 5438 5435 5433 5431 5430 5430 5429 5429 5429 5429 5429 5430 5430 5431 5432
5542 5535 5529 5522 5516 5510 5505 5500 5495 5490 5485 5481 5477 5473 5470 5466 5463 5458 5454 5450 5447 5444 5440 5439 5440 5437 5434 5431 5430 5428 5426 5425 5425 5425 5426 5426 5426 5426 5426 5426 5426 5427 5427
5523 5517 5511 5504 5498 5493 5488 5483 5479 5474 5471 5467 5464 5460 5457 5454 5451 5448 5445 5441 5438 5435 5432 5430 5430 5429 5427 5426 5424 5423 5424 5423 5422 5423 5423 5423 5423 5422 5422 5423 5423 5424 5424
5505 5498 5492 5487 5481 5477 5472 5468 5464 5461 5457 5454 5451 5448 5446 5444 5443 5439 5437 5434 5430 5428 5426 5424 5424 5424 5424 5423 5421 5420 5420 5421 5421 5421 5421 5420 5420 5420 5420 5420 5421 5421 5421
5486 5481 5475 5470 5466 5462 5457 5454 5451 5448 5445 5442 5439 5437 5435 5434 5431 5429 5427 5425 5423 5421 5420 5419 5420 5420 5420 5419 5419 5418 5417 5418 5419 5419 5416 5417 5417 5418 5419 5419 5419 5419 5418
5470 5465 5460 5455 5451 5447 5444 5441 5439 5436 5433 5431 5429 5427 5426 5425 5422 5420 5419 5418 5417 5416 5415 5415 5416 5417 5417 5417 5416 5416 5414 5413 5414 5414 5413 5415 5416 5416 5417 5418 5417 5417 5417
5454 5450 5445 5441 5437 5434 5431 5428 5426 5424 5422 5421 5420 5419 5417 5417 5416 5414 5414 5414 5414 5414 5414 5414 5415 5416 5416 5415 5413 5412 5411 5411 5412 5413 5410 5411 5413 5414 5416 5416 5416 5415 5415
5439 5435 5431 5427 5424 5421 5419 5416 5415 5413 5413 5413 5413 5412 5412 5411 5410 5409 5410 5411 5413 5415 5416 5416 5416 5416 5416 5415 5413 5411 5411 5410 5411 5412 5408 5406 5409 5410 5413 5415 5415 5414 5414
5425 5422 5418 5414 5411 5408 5406 5405 5403 5402 5403 5404 5406 5407 5407 5406 5406 5407 5408 5409 5412 5414 5416 5417 5418 5418 5417 5415 5413 5410 5409 5408 5408 5409 5406 5403 5405 5405 5409 5412 5413 5413 5413